Year,Month,Day,Hour,Minute,Value (Times are PST for temperature in C)
2012,09,19,00,00,16.90
2012,09,19,00,01,16.90
2012,09,19,00,02,16.90
2012,09,19,00,03,16.90
2012,09,19,00,04,16.90
2012,09,19,00,05,16.80
2012,09,19,00,06,16.80
2012,09,19,00,07,16.80
2012,09,19,00,08,16.80
2012,09,19,00,09,16.70
2012,09,19,00,10,16.70
2012,09,19,00,11,16.70
2012,09,19,00,12,16.70
2012,09,19,00,13,16.70
2012,09,19,00,14,16.70
2012,09,19,00,15,16.70
2012,09,19,00,16,16.70
2012,09,19,00,17,16.70
2012,09,19,00,18,16.70
2012,09,19,00,19,16.70
2012,09,19,00,20,16.70
2012,09,19,00,21,16.70
2012,09,19,00,22,16.70
2012,09,19,00,23,16.70
2012,09,19,00,24,16.70
2012,09,19,00,25,16.70
2012,09,19,00,26,16.70
2012,09,19,00,27,16.70
2012,09,19,00,28,16.60
2012,09,19,00,29,16.60
2012,09,19,00,30,16.60
2012,09,19,00,31,16.60
2012,09,19,00,32,16.60
2012,09,19,00,33,16.60
2012,09,19,00,34,16.60
2012,09,19,00,35,16.60
2012,09,19,00,36,16.60
2012,09,19,00,37,16.60
2012,09,19,00,38,16.60
2012,09,19,00,39,16.60
2012,09,19,00,40,16.60
2012,09,19,00,41,16.60
2012,09,19,00,42,16.60
2012,09,19,00,43,16.60
2012,09,19,00,44,16.60
2012,09,19,00,45,16.60
2012,09,19,00,46,16.50
2012,09,19,00,47,16.50
2012,09,19,00,48,16.50
2012,09,19,00,49,16.50
2012,09,19,00,50,16.50
2012,09,19,00,51,16.50
2012,09,19,00,52,16.40
2012,09,19,00,53,16.40
2012,09,19,00,54,16.40
2012,09,19,00,55,16.40
2012,09,19,00,56,16.40
2012,09,19,00,57,16.40
2012,09,19,00,58,16.40
2012,09,19,00,59,16.40
2012,09,19,01,00,16.40
2012,09,19,01,01,16.40
2012,09,19,01,02,16.40
2012,09,19,01,03,16.40
2012,09,19,01,04,16.40
2012,09,19,01,05,16.40
2012,09,19,01,06,16.40
2012,09,19,01,07,16.40
2012,09,19,01,08,16.40
2012,09,19,01,09,16.40
2012,09,19,01,10,16.40
2012,09,19,01,11,16.40
2012,09,19,01,12,16.40
2012,09,19,01,13,16.40
2012,09,19,01,14,16.40
2012,09,19,01,15,16.30
2012,09,19,01,16,16.30
2012,09,19,01,17,16.30
2012,09,19,01,18,16.30
2012,09,19,01,19,16.30
2012,09,19,01,20,16.30
2012,09,19,01,21,16.30
2012,09,19,01,22,16.20
2012,09,19,01,23,16.20
2012,09,19,01,24,16.20
2012,09,19,01,25,16.20
2012,09,19,01,26,16.20
2012,09,19,01,27,16.10
2012,09,19,01,28,16.10
2012,09,19,01,29,16.10
2012,09,19,01,30,16.00
2012,09,19,01,31,16.00
2012,09,19,01,32,15.90
2012,09,19,01,33,15.90
2012,09,19,01,34,15.90
2012,09,19,01,35,15.80
2012,09,19,01,36,15.80
2012,09,19,01,37,15.80
2012,09,19,01,38,15.80
2012,09,19,01,39,15.70
2012,09,19,01,40,15.70
2012,09,19,01,41,15.70
2012,09,19,01,42,15.70
2012,09,19,01,43,15.60
2012,09,19,01,44,15.60
2012,09,19,01,45,15.60
2012,09,19,01,46,15.60
2012,09,19,01,47,15.60
2012,09,19,01,48,15.50
2012,09,19,01,49,15.50
2012,09,19,01,50,15.50
2012,09,19,01,51,15.40
2012,09,19,01,52,15.40
2012,09,19,01,53,15.40
2012,09,19,01,54,15.40
2012,09,19,01,55,15.40
2012,09,19,01,56,15.40
2012,09,19,01,57,15.40
2012,09,19,01,58,15.30
2012,09,19,01,59,15.30
2012,09,19,02,00,15.30
2012,09,19,02,01,15.30
2012,09,19,02,02,15.30
2012,09,19,02,03,15.30
2012,09,19,02,04,15.30
2012,09,19,02,05,15.30
2012,09,19,02,06,15.30
2012,09,19,02,07,15.30
2012,09,19,02,08,15.30
2012,09,19,02,09,15.20
2012,09,19,02,10,15.20
2012,09,19,02,11,15.20
2012,09,19,02,12,15.20
2012,09,19,02,13,15.20
2012,09,19,02,14,15.10
2012,09,19,02,15,15.10
2012,09,19,02,16,15.00
2012,09,19,02,17,15.00
2012,09,19,02,18,15.00
2012,09,19,02,19,15.00
2012,09,19,02,20,15.00
2012,09,19,02,21,15.00
2012,09,19,02,22,15.00
2012,09,19,02,23,15.00
2012,09,19,02,24,15.00
2012,09,19,02,25,15.00
2012,09,19,02,26,15.00
2012,09,19,02,27,15.00
2012,09,19,02,28,15.00
2012,09,19,02,29,15.00
2012,09,19,02,30,15.00
2012,09,19,02,31,15.00
2012,09,19,02,32,15.00
2012,09,19,02,33,15.00
2012,09,19,02,34,15.00
2012,09,19,02,35,15.00
2012,09,19,02,36,15.00
2012,09,19,02,37,15.00
2012,09,19,02,38,15.00
2012,09,19,02,39,15.00
2012,09,19,02,40,15.00
2012,09,19,02,41,15.00
2012,09,19,02,42,15.00
2012,09,19,02,43,15.00
2012,09,19,02,44,15.00
2012,09,19,02,45,15.00
2012,09,19,02,46,15.00
2012,09,19,02,47,15.00
2012,09,19,02,48,14.90
2012,09,19,02,49,14.90
2012,09,19,02,50,14.90
2012,09,19,02,51,14.90
2012,09,19,02,52,14.90
2012,09,19,02,53,14.80
2012,09,19,02,54,14.80
2012,09,19,02,55,14.80
2012,09,19,02,56,14.80
2012,09,19,02,57,14.70
2012,09,19,02,58,14.70
2012,09,19,02,59,14.70
2012,09,19,03,00,14.70
2012,09,19,03,01,14.70
2012,09,19,03,02,14.70
2012,09,19,03,03,14.60
2012,09,19,03,04,14.60
2012,09,19,03,05,14.60
2012,09,19,03,06,14.60
2012,09,19,03,07,14.50
2012,09,19,03,08,14.50
2012,09,19,03,09,14.50
2012,09,19,03,10,14.40
2012,09,19,03,11,14.40
2012,09,19,03,12,14.40
2012,09,19,03,13,14.40
2012,09,19,03,14,14.30
2012,09,19,03,15,14.30
2012,09,19,03,16,14.30
2012,09,19,03,17,14.30
2012,09,19,03,18,14.20
2012,09,19,03,19,14.20
2012,09,19,03,20,14.20
2012,09,19,03,21,14.20
2012,09,19,03,22,14.20
2012,09,19,03,23,14.10
2012,09,19,03,24,14.10
2012,09,19,03,25,14.10
2012,09,19,03,26,14.10
2012,09,19,03,27,14.10
2012,09,19,03,28,14.10
2012,09,19,03,29,14.00
2012,09,19,03,30,14.00
2012,09,19,03,31,14.00
2012,09,19,03,32,14.00
2012,09,19,03,33,13.90
2012,09,19,03,34,13.90
2012,09,19,03,35,13.90
2012,09,19,03,36,13.90
2012,09,19,03,37,13.90
2012,09,19,03,38,13.90
2012,09,19,03,39,13.90
2012,09,19,03,40,13.90
2012,09,19,03,41,14.00
2012,09,19,03,42,14.00
2012,09,19,03,43,14.00
2012,09,19,03,44,14.00
2012,09,19,03,45,14.00
2012,09,19,03,46,14.00
2012,09,19,03,47,14.00
2012,09,19,03,48,14.10
2012,09,19,03,49,14.10
2012,09,19,03,50,14.10
2012,09,19,03,51,14.10
2012,09,19,03,52,14.10
2012,09,19,03,53,14.10
2012,09,19,03,54,14.10
2012,09,19,03,55,14.10
2012,09,19,03,56,14.10
2012,09,19,03,57,14.20
2012,09,19,03,58,14.20
2012,09,19,03,59,14.20
2012,09,19,04,00,14.20
2012,09,19,04,01,14.20
2012,09,19,04,02,14.20
2012,09,19,04,03,14.20
2012,09,19,04,04,14.20
2012,09,19,04,05,14.20
2012,09,19,04,06,14.30
2012,09,19,04,07,14.30
2012,09,19,04,08,14.30
2012,09,19,04,09,14.30
2012,09,19,04,10,14.40
2012,09,19,04,11,14.40
2012,09,19,04,12,14.40
2012,09,19,04,13,14.40
2012,09,19,04,14,14.40
2012,09,19,04,15,14.50
2012,09,19,04,16,14.50
2012,09,19,04,17,14.50
2012,09,19,04,18,14.50
2012,09,19,04,19,14.50
2012,09,19,04,20,14.50
2012,09,19,04,21,14.50
2012,09,19,04,22,14.50
2012,09,19,04,23,14.50
2012,09,19,04,24,14.50
2012,09,19,04,25,14.50
2012,09,19,04,26,14.50
2012,09,19,04,27,14.50
2012,09,19,04,28,14.40
2012,09,19,04,29,14.40
2012,09,19,04,30,14.40
2012,09,19,04,31,14.40
2012,09,19,04,32,14.40
2012,09,19,04,33,14.40
2012,09,19,04,34,14.40
2012,09,19,04,35,14.40
2012,09,19,04,36,14.40
2012,09,19,04,37,14.40
2012,09,19,04,38,14.40
2012,09,19,04,39,14.40
2012,09,19,04,40,14.40
2012,09,19,04,41,14.40
2012,09,19,04,42,14.40
2012,09,19,04,43,14.40
2012,09,19,04,44,14.40
2012,09,19,04,45,14.30
2012,09,19,04,46,14.30
2012,09,19,04,47,14.30
2012,09,19,04,48,14.30
2012,09,19,04,49,14.30
2012,09,19,04,50,14.30
2012,09,19,04,51,14.30
2012,09,19,04,52,14.30
2012,09,19,04,53,14.20
2012,09,19,04,54,14.20
2012,09,19,04,55,14.20
2012,09,19,04,56,14.20
2012,09,19,04,57,14.20
2012,09,19,04,58,14.10
2012,09,19,04,59,14.10
2012,09,19,05,00,14.10
2012,09,19,05,01,14.10
2012,09,19,05,02,14.00
2012,09,19,05,03,14.00
2012,09,19,05,04,13.90
2012,09,19,05,05,13.90
2012,09,19,05,06,13.90
2012,09,19,05,07,13.90
2012,09,19,05,08,13.80
2012,09,19,05,09,13.80
2012,09,19,05,10,13.80
2012,09,19,05,11,13.70
2012,09,19,05,12,13.70
2012,09,19,05,13,13.70
2012,09,19,05,14,13.70
2012,09,19,05,15,13.60
2012,09,19,05,16,13.60
2012,09,19,05,17,13.60
2012,09,19,05,18,13.60
2012,09,19,05,19,13.50
2012,09,19,05,20,13.50
2012,09,19,05,21,13.50
2012,09,19,05,22,13.50
2012,09,19,05,23,13.40
2012,09,19,05,24,13.40
2012,09,19,05,25,13.40
2012,09,19,05,26,13.40
2012,09,19,05,27,13.40
2012,09,19,05,28,13.40
2012,09,19,05,29,13.40
2012,09,19,05,30,13.40
2012,09,19,05,31,13.50
2012,09,19,05,32,13.50
2012,09,19,05,33,13.50
2012,09,19,05,34,13.60
2012,09,19,05,35,13.60
2012,09,19,05,36,13.60
2012,09,19,05,37,13.60
2012,09,19,05,38,13.60
2012,09,19,05,39,13.60
2012,09,19,05,40,13.70
2012,09,19,05,41,13.70
2012,09,19,05,42,13.70
2012,09,19,05,43,13.70
2012,09,19,05,44,13.70
2012,09,19,05,45,13.70
2012,09,19,05,46,13.70
2012,09,19,05,47,13.70
2012,09,19,05,48,13.70
2012,09,19,05,49,13.70
2012,09,19,05,50,13.70
2012,09,19,05,51,13.70
2012,09,19,05,52,13.70
2012,09,19,05,53,13.60
2012,09,19,05,54,13.60
2012,09,19,05,55,13.60
2012,09,19,05,56,13.60
2012,09,19,05,57,13.60
2012,09,19,05,58,13.60
2012,09,19,05,59,13.60
2012,09,19,06,00,13.60
2012,09,19,06,01,13.60
2012,09,19,06,02,13.60
2012,09,19,06,03,13.60
2012,09,19,06,04,13.60
2012,09,19,06,05,13.70
2012,09,19,06,06,13.70
2012,09,19,06,07,13.70
2012,09,19,06,08,13.70
2012,09,19,06,09,13.70
2012,09,19,06,10,13.70
2012,09,19,06,11,13.80
2012,09,19,06,12,13.80
2012,09,19,06,13,13.80
2012,09,19,06,14,13.80
2012,09,19,06,15,13.80
2012,09,19,06,16,13.80
2012,09,19,06,17,13.90
2012,09,19,06,18,13.90
2012,09,19,06,19,13.90
2012,09,19,06,20,13.90
2012,09,19,06,21,13.90
2012,09,19,06,22,13.90
2012,09,19,06,23,14.00
2012,09,19,06,24,14.00
2012,09,19,06,25,14.00
2012,09,19,06,26,14.00
2012,09,19,06,27,14.00
2012,09,19,06,28,14.00
2012,09,19,06,29,14.00
2012,09,19,06,30,14.00
2012,09,19,06,31,14.00
2012,09,19,06,32,14.00
2012,09,19,06,33,14.00
2012,09,19,06,34,14.00
2012,09,19,06,35,14.00
2012,09,19,06,36,14.00
2012,09,19,06,37,14.00
2012,09,19,06,38,14.00
2012,09,19,06,39,13.90
2012,09,19,06,40,13.90
2012,09,19,06,41,13.90
2012,09,19,06,42,13.90
2012,09,19,06,43,13.90
2012,09,19,06,44,13.90
2012,09,19,06,45,13.90
2012,09,19,06,46,13.90
2012,09,19,06,47,13.90
2012,09,19,06,48,13.90
2012,09,19,06,49,13.90
2012,09,19,06,50,13.80
2012,09,19,06,51,13.90
2012,09,19,06,52,13.80
2012,09,19,06,53,13.80
2012,09,19,06,54,13.80
2012,09,19,06,55,13.80
2012,09,19,06,56,13.80
2012,09,19,06,57,13.80
2012,09,19,06,58,13.80
2012,09,19,06,59,13.80
2012,09,19,07,00,13.80
2012,09,19,07,01,13.80
2012,09,19,07,02,13.80
2012,09,19,07,03,13.80
2012,09,19,07,04,13.80
2012,09,19,07,05,13.80
2012,09,19,07,06,13.80
2012,09,19,07,07,13.80
2012,09,19,07,08,13.80
2012,09,19,07,09,13.80
2012,09,19,07,10,13.80
2012,09,19,07,11,13.80
2012,09,19,07,12,13.80
2012,09,19,07,13,13.80
2012,09,19,07,14,13.80
2012,09,19,07,15,13.80
2012,09,19,07,16,13.80
2012,09,19,07,17,13.80
2012,09,19,07,18,13.80
2012,09,19,07,19,13.80
2012,09,19,07,20,13.80
2012,09,19,07,21,13.80
2012,09,19,07,22,13.80
2012,09,19,07,23,13.80
2012,09,19,07,24,13.80
2012,09,19,07,25,13.80
2012,09,19,07,26,13.80
2012,09,19,07,27,13.80
2012,09,19,07,28,13.80
2012,09,19,07,29,13.90
2012,09,19,07,30,13.80
2012,09,19,07,31,13.80
2012,09,19,07,32,13.80
2012,09,19,07,33,13.80
2012,09,19,07,34,13.80
2012,09,19,07,35,13.80
2012,09,19,07,36,13.80
2012,09,19,07,37,13.90
2012,09,19,07,38,13.80
2012,09,19,07,39,13.80
2012,09,19,07,40,13.90
2012,09,19,07,41,13.90
2012,09,19,07,42,13.90
2012,09,19,07,43,13.90
2012,09,19,07,44,13.90
2012,09,19,07,45,14.00
2012,09,19,07,46,14.00
2012,09,19,07,47,14.10
2012,09,19,07,48,14.10
2012,09,19,07,49,14.10
2012,09,19,07,50,14.10
2012,09,19,07,51,14.20
2012,09,19,07,52,14.20
2012,09,19,07,53,14.30
2012,09,19,07,54,14.30
2012,09,19,07,55,14.30
2012,09,19,07,56,14.40
2012,09,19,07,57,14.40
2012,09,19,07,58,14.50
2012,09,19,07,59,14.50
2012,09,19,08,00,14.50
2012,09,19,08,01,14.60
2012,09,19,08,02,14.60
2012,09,19,08,03,14.70
2012,09,19,08,04,14.70
2012,09,19,08,05,14.70
2012,09,19,08,06,14.80
2012,09,19,08,07,14.80
2012,09,19,08,08,14.80
2012,09,19,08,09,14.90
2012,09,19,08,10,15.00
2012,09,19,08,11,15.00
2012,09,19,08,12,15.00
2012,09,19,08,13,15.00
2012,09,19,08,14,15.00
2012,09,19,08,15,15.00
2012,09,19,08,16,15.00
2012,09,19,08,17,15.10
2012,09,19,08,18,15.20
2012,09,19,08,19,15.20
2012,09,19,08,20,15.30
2012,09,19,08,21,15.30
2012,09,19,08,22,15.40
2012,09,19,08,23,15.50
2012,09,19,08,24,15.50
2012,09,19,08,25,15.60
2012,09,19,08,26,15.60
2012,09,19,08,27,15.60
2012,09,19,08,28,15.70
2012,09,19,08,29,15.70
2012,09,19,08,30,15.80
2012,09,19,08,31,15.80
2012,09,19,08,32,16.00
2012,09,19,08,33,16.00
2012,09,19,08,34,16.10
2012,09,19,08,35,16.10
2012,09,19,08,36,16.20
2012,09,19,08,37,16.20
2012,09,19,08,38,16.30
2012,09,19,08,39,16.30
2012,09,19,08,40,16.40
2012,09,19,08,41,16.40
2012,09,19,08,42,16.40
2012,09,19,08,43,16.50
2012,09,19,08,44,16.50
2012,09,19,08,45,16.60
2012,09,19,08,46,16.60
2012,09,19,08,47,16.70
2012,09,19,08,48,16.70
2012,09,19,08,49,16.70
2012,09,19,08,50,16.70
2012,09,19,08,51,16.80
2012,09,19,08,52,16.80
2012,09,19,08,53,16.80
2012,09,19,08,54,16.80
2012,09,19,08,55,16.90
2012,09,19,08,56,16.90
2012,09,19,08,57,16.90
2012,09,19,08,58,16.90
2012,09,19,08,59,17.00
2012,09,19,09,00,17.00
2012,09,19,09,01,17.10
2012,09,19,09,02,17.10
2012,09,19,09,03,17.10
2012,09,19,09,04,17.20
2012,09,19,09,05,17.20
2012,09,19,09,06,17.30
2012,09,19,09,07,17.20
2012,09,19,09,08,17.20
2012,09,19,09,09,17.30
2012,09,19,09,10,17.30
2012,09,19,09,11,17.30
2012,09,19,09,12,17.30
2012,09,19,09,13,17.40
2012,09,19,09,14,17.40
2012,09,19,09,15,17.40
2012,09,19,09,16,17.50
2012,09,19,09,17,17.50
2012,09,19,09,18,17.60
2012,09,19,09,19,17.60
2012,09,19,09,20,17.60
2012,09,19,09,21,17.70
2012,09,19,09,22,17.70
2012,09,19,09,23,17.70
2012,09,19,09,24,17.70
2012,09,19,09,25,17.70
2012,09,19,09,26,17.70
2012,09,19,09,27,17.70
2012,09,19,09,28,17.70
2012,09,19,09,29,17.70
2012,09,19,09,30,17.70
2012,09,19,09,31,17.70
2012,09,19,09,32,17.80
2012,09,19,09,33,17.80
2012,09,19,09,34,17.90
2012,09,19,09,35,17.90
2012,09,19,09,36,18.00
2012,09,19,09,37,18.00
2012,09,19,09,38,17.90
2012,09,19,09,39,17.90
2012,09,19,09,40,17.80
2012,09,19,09,41,17.70
2012,09,19,09,42,17.60
2012,09,19,09,43,17.50
2012,09,19,09,44,17.50
2012,09,19,09,45,17.40
2012,09,19,09,46,17.40
2012,09,19,09,47,17.30
2012,09,19,09,48,17.30
2012,09,19,09,49,17.30
2012,09,19,09,50,17.20
2012,09,19,09,51,17.20
2012,09,19,09,52,17.20
2012,09,19,09,53,17.20
2012,09,19,09,54,17.20
2012,09,19,09,55,17.20
2012,09,19,09,56,17.20
2012,09,19,09,57,17.20
2012,09,19,09,58,17.20
2012,09,19,09,59,17.20
2012,09,19,10,00,17.20
2012,09,19,10,01,17.20
2012,09,19,10,02,17.20
2012,09,19,10,03,17.30
2012,09,19,10,04,17.30
2012,09,19,10,05,17.30
2012,09,19,10,06,17.30
2012,09,19,10,07,17.30
2012,09,19,10,08,17.30
2012,09,19,10,09,17.40
2012,09,19,10,10,17.40
2012,09,19,10,11,17.50
2012,09,19,10,12,17.50
2012,09,19,10,13,17.60
2012,09,19,10,14,17.70
2012,09,19,10,15,17.70
2012,09,19,10,16,17.70
2012,09,19,10,17,17.70
2012,09,19,10,18,17.70
2012,09,19,10,19,17.70
2012,09,19,10,20,17.70
2012,09,19,10,21,17.70
2012,09,19,10,22,17.70
2012,09,19,10,23,17.60
2012,09,19,10,24,17.60
2012,09,19,10,25,17.60
2012,09,19,10,26,17.70
2012,09,19,10,27,17.70
2012,09,19,10,28,17.70
2012,09,19,10,29,17.70
2012,09,19,10,30,17.80
2012,09,19,10,31,17.80
2012,09,19,10,32,17.80
2012,09,19,10,33,17.90
2012,09,19,10,34,18.00
2012,09,19,10,35,18.00
2012,09,19,10,36,18.10
2012,09,19,10,37,18.10
2012,09,19,10,38,18.10
2012,09,19,10,39,18.10
2012,09,19,10,40,18.00
2012,09,19,10,41,18.00
2012,09,19,10,42,17.90
2012,09,19,10,43,17.80
2012,09,19,10,44,17.80
2012,09,19,10,45,17.80
2012,09,19,10,46,17.70
2012,09,19,10,47,17.70
2012,09,19,10,48,17.70
2012,09,19,10,49,17.60
2012,09,19,10,50,17.60
2012,09,19,10,51,17.60
2012,09,19,10,52,17.60
2012,09,19,10,53,17.50
2012,09,19,10,54,17.60
2012,09,19,10,55,17.60
2012,09,19,10,56,17.70
2012,09,19,10,57,17.80
2012,09,19,10,58,17.80
2012,09,19,10,59,17.90
2012,09,19,11,00,17.90
2012,09,19,11,01,17.90
2012,09,19,11,02,17.90
2012,09,19,11,03,17.90
2012,09,19,11,04,17.90
2012,09,19,11,05,17.90
2012,09,19,11,06,17.90
2012,09,19,11,07,18.00
2012,09,19,11,08,18.00
2012,09,19,11,09,18.00
2012,09,19,11,10,18.10
2012,09,19,11,11,18.10
2012,09,19,11,12,18.10
2012,09,19,11,13,18.10
2012,09,19,11,14,18.10
2012,09,19,11,15,18.10
2012,09,19,11,16,18.10
2012,09,19,11,17,18.10
2012,09,19,11,18,18.10
2012,09,19,11,19,18.00
2012,09,19,11,20,18.00
2012,09,19,11,21,18.00
2012,09,19,11,22,17.90
2012,09,19,11,23,17.80
2012,09,19,11,24,17.80
2012,09,19,11,25,17.80
2012,09,19,11,26,17.70
2012,09,19,11,27,17.70
2012,09,19,11,28,17.60
2012,09,19,11,29,17.50
2012,09,19,11,30,17.40
2012,09,19,11,31,17.40
2012,09,19,11,32,17.30
2012,09,19,11,33,17.30
2012,09,19,11,34,17.30
2012,09,19,11,35,17.30
2012,09,19,11,36,17.40
2012,09,19,11,37,17.40
2012,09,19,11,38,17.40
2012,09,19,11,39,17.50
2012,09,19,11,40,17.60
2012,09,19,11,41,17.60
2012,09,19,11,42,17.70
2012,09,19,11,43,17.70
2012,09,19,11,44,17.70
2012,09,19,11,45,17.70
2012,09,19,11,46,17.70
2012,09,19,11,47,17.70
2012,09,19,11,48,17.80
2012,09,19,11,49,17.80
2012,09,19,11,50,17.80
2012,09,19,11,51,17.80
2012,09,19,11,52,17.80
2012,09,19,11,53,17.80
2012,09,19,11,54,17.70
2012,09,19,11,55,17.70
2012,09,19,11,56,17.70
2012,09,19,11,57,17.70
2012,09,19,11,58,17.70
2012,09,19,11,59,17.70
2012,09,19,12,00,17.80
2012,09,19,12,01,17.80
2012,09,19,12,02,17.90
2012,09,19,12,03,18.00
2012,09,19,12,04,18.10
2012,09,19,12,05,18.10
2012,09,19,12,06,18.00
2012,09,19,12,07,18.00
2012,09,19,12,08,18.00
2012,09,19,12,09,18.00
2012,09,19,12,10,18.00
2012,09,19,12,11,18.10
2012,09,19,12,12,18.10
2012,09,19,12,13,18.10
2012,09,19,12,14,18.00
2012,09,19,12,15,18.00
2012,09,19,12,16,18.00
2012,09,19,12,17,18.10
2012,09,19,12,18,18.10
2012,09,19,12,19,18.10
2012,09,19,12,20,18.00
2012,09,19,12,21,17.90
2012,09,19,12,22,17.90
2012,09,19,12,23,17.80
2012,09,19,12,24,17.90
2012,09,19,12,25,17.90
2012,09,19,12,26,17.90
2012,09,19,12,27,17.80
2012,09,19,12,28,17.70
2012,09,19,12,29,17.70
2012,09,19,12,30,17.70
2012,09,19,12,31,17.70
2012,09,19,12,32,17.80
2012,09,19,12,33,17.80
2012,09,19,12,34,17.80
2012,09,19,12,35,17.80
2012,09,19,12,36,17.80
2012,09,19,12,37,17.80
2012,09,19,12,38,17.80
2012,09,19,12,39,17.80
2012,09,19,12,40,17.80
2012,09,19,12,41,17.90
2012,09,19,12,42,17.90
2012,09,19,12,43,17.90
2012,09,19,12,44,17.90
2012,09,19,12,45,18.00
2012,09,19,12,46,18.10
2012,09,19,12,47,18.20
2012,09,19,12,48,18.20
2012,09,19,12,49,18.10
2012,09,19,12,50,18.10
2012,09,19,12,51,18.10
2012,09,19,12,52,18.10
2012,09,19,12,53,18.00
2012,09,19,12,54,18.00
2012,09,19,12,55,17.90
2012,09,19,12,56,17.90
2012,09,19,12,57,18.00
2012,09,19,12,58,18.00
2012,09,19,12,59,18.10
2012,09,19,13,00,18.10
2012,09,19,13,01,18.10
2012,09,19,13,02,18.10
2012,09,19,13,03,18.10
2012,09,19,13,04,18.10
2012,09,19,13,05,18.10
2012,09,19,13,06,18.10
2012,09,19,13,07,18.20
2012,09,19,13,08,18.20
2012,09,19,13,09,18.20
2012,09,19,13,10,18.20
2012,09,19,13,11,18.30
2012,09,19,13,12,18.40
2012,09,19,13,13,18.50
2012,09,19,13,14,18.50
2012,09,19,13,15,18.60
2012,09,19,13,16,18.60
2012,09,19,13,17,18.50
2012,09,19,13,18,18.50
2012,09,19,13,19,18.60
2012,09,19,13,20,18.60
2012,09,19,13,21,18.60
2012,09,19,13,22,18.60
2012,09,19,13,23,18.60
2012,09,19,13,24,18.60
2012,09,19,13,25,18.70
2012,09,19,13,26,18.80
2012,09,19,13,27,18.80
2012,09,19,13,28,18.90
2012,09,19,13,29,19.00
2012,09,19,13,30,19.00
2012,09,19,13,31,19.10
2012,09,19,13,32,19.10
2012,09,19,13,33,19.20
2012,09,19,13,34,19.20
2012,09,19,13,35,19.20
2012,09,19,13,36,19.20
2012,09,19,13,37,19.20
2012,09,19,13,38,19.20
2012,09,19,13,39,19.20
2012,09,19,13,40,19.10
2012,09,19,13,41,19.00
2012,09,19,13,42,18.90
2012,09,19,13,43,18.90
2012,09,19,13,44,18.80
2012,09,19,13,45,18.70
2012,09,19,13,46,18.70
2012,09,19,13,47,18.60
2012,09,19,13,48,18.60
2012,09,19,13,49,18.60
2012,09,19,13,50,18.50
2012,09,19,13,51,18.40
2012,09,19,13,52,18.40
2012,09,19,13,53,18.30
2012,09,19,13,54,18.30
2012,09,19,13,55,18.30
2012,09,19,13,56,18.40
2012,09,19,13,57,18.40
2012,09,19,13,58,18.40
2012,09,19,13,59,18.50
2012,09,19,14,00,18.50
2012,09,19,14,01,18.50
2012,09,19,14,02,18.50
2012,09,19,14,03,18.60
2012,09,19,14,04,18.60
2012,09,19,14,05,18.60
2012,09,19,14,06,18.60
2012,09,19,14,07,18.50
2012,09,19,14,08,18.50
2012,09,19,14,09,18.60
2012,09,19,14,10,18.60
2012,09,19,14,11,18.60
2012,09,19,14,12,18.70
2012,09,19,14,13,18.70
2012,09,19,14,14,18.70
2012,09,19,14,15,18.70
2012,09,19,14,16,18.80
2012,09,19,14,17,18.90
2012,09,19,14,18,19.00
2012,09,19,14,19,19.10
2012,09,19,14,20,19.20
2012,09,19,14,21,19.20
2012,09,19,14,22,19.40
2012,09,19,14,23,19.40
2012,09,19,14,24,19.40
2012,09,19,14,25,19.40
2012,09,19,14,26,19.50
2012,09,19,14,27,19.50
2012,09,19,14,28,19.60
2012,09,19,14,29,19.60
2012,09,19,14,30,19.60
2012,09,19,14,31,19.60
2012,09,19,14,32,19.60
2012,09,19,14,33,19.60
2012,09,19,14,34,19.60
2012,09,19,14,35,19.60
2012,09,19,14,36,19.60
2012,09,19,14,37,19.60
2012,09,19,14,38,19.60
2012,09,19,14,39,19.60
2012,09,19,14,40,19.60
2012,09,19,14,41,19.70
2012,09,19,14,42,19.70
2012,09,19,14,43,19.70
2012,09,19,14,44,19.70
2012,09,19,14,45,19.70
2012,09,19,14,46,19.70
2012,09,19,14,47,19.70
2012,09,19,14,48,19.80
2012,09,19,14,49,19.80
2012,09,19,14,50,19.80
2012,09,19,14,51,19.80
2012,09,19,14,52,19.70
2012,09,19,14,53,19.70
2012,09,19,14,54,19.80
2012,09,19,14,55,19.70
2012,09,19,14,56,19.70
2012,09,19,14,57,19.70
2012,09,19,14,58,19.60
2012,09,19,14,59,19.60
2012,09,19,15,00,19.60
2012,09,19,15,01,19.50
2012,09,19,15,02,19.50
2012,09,19,15,03,19.40
2012,09,19,15,04,19.40
2012,09,19,15,05,19.40
2012,09,19,15,06,19.40
2012,09,19,15,07,19.40
2012,09,19,15,08,19.40
2012,09,19,15,09,19.50
2012,09,19,15,10,19.50
2012,09,19,15,11,19.50
2012,09,19,15,12,19.50
2012,09,19,15,13,19.40
2012,09,19,15,14,19.30
2012,09,19,15,15,19.30
2012,09,19,15,16,19.20
2012,09,19,15,17,19.20
2012,09,19,15,18,19.10
2012,09,19,15,19,19.10
2012,09,19,15,20,19.00
2012,09,19,15,21,19.00
2012,09,19,15,22,18.90
2012,09,19,15,23,18.90
2012,09,19,15,24,18.90
2012,09,19,15,25,18.90
2012,09,19,15,26,18.80
2012,09,19,15,27,18.80
2012,09,19,15,28,18.80
2012,09,19,15,29,18.80
2012,09,19,15,30,18.80
2012,09,19,15,31,18.80
2012,09,19,15,32,18.80
2012,09,19,15,33,18.80
2012,09,19,15,34,18.80
2012,09,19,15,35,18.80
2012,09,19,15,36,18.80
2012,09,19,15,37,18.80
2012,09,19,15,38,18.70
2012,09,19,15,39,18.70
2012,09,19,15,40,18.70
2012,09,19,15,41,18.60
2012,09,19,15,42,18.60
2012,09,19,15,43,18.60
2012,09,19,15,44,18.60
2012,09,19,15,45,18.60
2012,09,19,15,46,18.70
2012,09,19,15,47,18.70
2012,09,19,15,48,18.80
2012,09,19,15,49,18.90
2012,09,19,15,50,19.00
2012,09,19,15,51,19.10
2012,09,19,15,52,19.10
2012,09,19,15,53,19.20
2012,09,19,15,54,19.20
2012,09,19,15,55,19.30
2012,09,19,15,56,19.30
2012,09,19,15,57,19.40
2012,09,19,15,58,19.40
2012,09,19,15,59,19.40
2012,09,19,16,00,19.40
2012,09,19,16,01,19.40
2012,09,19,16,02,19.30
2012,09,19,16,03,19.30
2012,09,19,16,04,19.30
2012,09,19,16,05,19.30
2012,09,19,16,06,19.30
2012,09,19,16,07,19.30
2012,09,19,16,08,19.30
2012,09,19,16,09,19.30
2012,09,19,16,10,19.40
2012,09,19,16,11,19.40
2012,09,19,16,12,19.40
2012,09,19,16,13,19.40
2012,09,19,16,14,19.50
2012,09,19,16,15,19.50
2012,09,19,16,16,19.60
2012,09,19,16,17,19.70
2012,09,19,16,18,19.80
2012,09,19,16,19,19.90
2012,09,19,16,20,20.00
2012,09,19,16,21,20.10
2012,09,19,16,22,20.10
2012,09,19,16,23,20.10
2012,09,19,16,24,20.10
2012,09,19,16,25,20.10
2012,09,19,16,26,20.10
2012,09,19,16,27,20.00
2012,09,19,16,28,20.00
2012,09,19,16,29,19.90
2012,09,19,16,30,19.90
2012,09,19,16,31,19.90
2012,09,19,16,32,19.90
2012,09,19,16,33,19.90
2012,09,19,16,34,19.90
2012,09,19,16,35,19.90
2012,09,19,16,36,19.90
2012,09,19,16,37,19.90
2012,09,19,16,38,19.90
2012,09,19,16,39,19.90
2012,09,19,16,40,19.90
2012,09,19,16,41,19.90
2012,09,19,16,42,19.90
2012,09,19,16,43,20.00
2012,09,19,16,44,20.00
2012,09,19,16,45,20.10
2012,09,19,16,46,20.20
2012,09,19,16,47,20.30
2012,09,19,16,48,20.30
2012,09,19,16,49,20.40
2012,09,19,16,50,20.40
2012,09,19,16,51,20.50
2012,09,19,16,52,20.50
2012,09,19,16,53,20.60
2012,09,19,16,54,20.60
2012,09,19,16,55,20.60
2012,09,19,16,56,20.60
2012,09,19,16,57,20.60
2012,09,19,16,58,20.60
2012,09,19,16,59,20.50
2012,09,19,17,00,20.50
2012,09,19,17,01,20.40
2012,09,19,17,02,20.40
2012,09,19,17,03,20.30
2012,09,19,17,04,20.30
2012,09,19,17,05,20.20
2012,09,19,17,06,20.20
2012,09,19,17,07,20.20
2012,09,19,17,08,20.20
2012,09,19,17,09,20.20
2012,09,19,17,10,20.20
2012,09,19,17,11,20.20
2012,09,19,17,12,20.20
2012,09,19,17,13,20.20
2012,09,19,17,14,20.30
2012,09,19,17,15,20.30
2012,09,19,17,16,20.30
2012,09,19,17,17,20.30
2012,09,19,17,18,20.30
2012,09,19,17,19,20.40